Total_Precipitation_Accumulation
1.52 1.48 1.35 1.29 1.17 1.24 1.38 1.49 1.52 1.57 1.60 1.53 1.40 1.54 1.65 1.79 1.93 2.09 2.46 2.72 3.01 3.60 3.95 3.81 3.42 3.11 3.00 3.00 3.22 3.10 3.11 3.21 3.08 3.03 2.99 2.88 2.77 2.63 2.57 2.54 2.52 2.47 2.52
1.41 1.43 1.40 1.40 1.32 1.32 1.41 1.42 1.36 1.49 1.67 1.60 1.44 1.43 1.51 1.66 1.84 1.88 2.04 2.31 2.63 3.05 3.84 4.21 4.03 3.71 3.65 3.49 3.72 3.60 3.35 3.09 2.93 2.98 2.92 2.86 2.84 2.66 2.51 2.40 2.40 2.27 2.26
1.21 1.31 1.33 1.30 1.33 1.44 1.49 1.54 1.36 1.41 1.46 1.46 1.47 1.44 1.39 1.48 1.58 1.67 1.62 1.72 1.94 2.38 3.11 3.83 4.26 4.20 4.12 4.01 3.93 3.66 3.41 3.13 2.94 2.88 2.79 2.65 2.67 2.60 2.42 2.39 2.29 2.30 2.24
1.11 1.28 1.30 1.26 1.26 1.44 1.58 1.67 1.57 1.56 1.54 1.53 1.55 1.53 1.43 1.48 1.41 1.49 1.53 1.49 1.72 1.76 2.24 2.94 3.52 3.75 4.00 4.14 4.01 3.75 3.49 3.15 2.87 2.81 2.74 2.53 2.50 2.46 2.34 2.41 2.30 2.19 2.15
1.19 1.38 1.50 1.49 1.44 1.48 1.54 1.54 1.63 1.67 1.66 1.67 1.58 1.56 1.54 1.50 1.53 1.43 1.51 1.54 1.50 1.63 1.86 2.18 2.68 3.06 3.38 3.58 3.80 3.98 3.86 3.37 2.97 2.86 2.81 2.52 2.40 2.49 2.34 2.30 2.23 2.04 1.93
1.51 1.66 1.67 1.76 1.78 1.71 1.72 1.69 1.76 1.74 1.67 1.74 1.60 1.49 1.49 1.43 1.57 1.67 1.64 1.68 1.59 1.55 1.92 2.16 2.24 2.30 2.77 3.08 3.40 3.81 4.01 3.72 3.35 3.09 2.98 2.72 2.50 2.60 2.33 2.24 2.20 1.95 1.83
1.78 2.04 1.99 2.07 2.14 2.09 2.07 2.05 2.29 2.24 1.98 1.79 1.89 1.75 1.59 1.48 1.67 1.75 1.74 1.89 1.89 1.96 2.18 2.21 2.07 1.99 2.01 2.29 2.69 3.23 3.85 3.86 3.59 3.25 3.09 2.84 2.55 2.46 2.19 2.12 2.13 2.00 1.80
1.65 1.82 2.10 2.25 2.22 2.38 2.49 2.46 2.82 2.97 2.47 2.03 2.17 2.45 2.19 2.01 1.83 1.69 1.76 1.88 2.06 2.24 2.31 2.17 2.01 1.83 1.77 1.85 1.88 2.37 3.07 3.53 3.56 3.30 3.07 2.78 2.54 2.34 2.22 2.21 2.16 2.19 1.96
1.60 1.74 1.89 2.05 2.09 2.26 2.45 2.58 2.90 3.44 3.21 2.54 2.35 2.81 2.61 2.43 2.29 1.96 1.77 1.79 1.93 2.22 2.46 2.40 2.15 1.91 1.71 1.79 1.76 1.99 2.36 2.71 3.29 3.47 3.31 2.99 2.74 2.45 2.33 2.41 2.20 2.34 2.34
1.47 1.60 1.74 1.85 1.98 2.04 2.24 2.34 2.48 3.07 3.48 3.15 2.85 2.54 2.24 2.22 2.42 2.42 2.04 1.84 1.84 2.00 2.24 2.23 2.10 2.04 1.87 1.77 1.69 1.69 1.96 2.23 2.86 3.40 3.66 3.51 3.18 2.83 2.77 2.91 2.59 2.44 2.40
1.56 1.56 1.73 1.79 1.81 1.89 2.04 2.38 2.66 2.97 3.23 3.26 3.25 3.03 2.71 2.42 2.08 2.38 2.47 2.14 1.98 1.93 2.01 2.09 1.99 1.96 1.94 1.88 1.97 1.75 1.71 1.94 2.30 2.96 3.64 3.93 3.66 3.32 3.32 3.39 2.99 2.79 2.65
1.72 1.72 1.76 1.79 1.76 1.81 1.93 2.19 2.51 2.75 3.08 3.33 3.30 3.11 2.97 2.84 2.57 2.50 2.41 2.26 2.27 2.11 1.97 1.94 1.83 1.82 1.93 2.11 2.10 2.09 1.81 1.70 1.81 2.15 2.72 3.26 3.53 3.57 3.72 3.71 3.45 3.39 3.19
1.65 1.68 1.74 1.86 1.92 1.97 2.10 2.28 2.46 2.41 2.60 3.03 3.08 2.95 2.88 2.72 2.66 2.73 2.68 2.36 2.22 1.96 1.84 1.80 1.69 1.79 1.77 1.83 2.10 2.30 1.89 1.63 1.47 1.70 1.96 2.25 2.64 3.10 3.59 3.84 3.87 3.89 3.67
1.61 1.55 1.58 1.67 1.78 1.96 2.02 2.10 2.16 2.13 2.24 2.49 2.60 2.80 2.92 2.71 2.64 2.55 2.54 2.61 2.37 2.07 1.90 1.76 1.59 1.61 1.62 1.68 1.95 2.14 1.84 1.65 1.29 1.28 1.41 1.68 1.93 2.27 2.71 3.21 3.63 3.84 3.89
1.37 1.26 1.26 1.33 1.40 1.47 1.58 1.74 1.85 1.94 2.02 2.14 2.27 2.41 2.58 2.72 2.67 2.52 2.52 2.53 2.53 2.33 2.10 1.93 1.73 1.51 1.57 1.69 1.92 1.73 1.66 1.68 1.41 1.24 1.20 1.33 1.53 1.67 1.89 2.16 2.52 2.91 3.23
1.33 1.22 1.16 1.13 1.12 1.08 1.13 1.32 1.52 1.63 1.73 1.89 2.07 2.21 2.26 2.34 2.55 2.56 2.44 2.46 2.41 2.28 2.14 1.90 1.78 1.59 1.71 1.66 1.83 1.63 1.66 1.77 1.48 1.34 1.22 1.24 1.35 1.31 1.28 1.40 1.52 1.76 2.21
1.36 1.32 1.21 1.14 1.22 1.20 1.16 1.24 1.28 1.34 1.41 1.55 1.69 1.82 1.98 2.25 2.55 2.62 2.60 2.50 2.42 2.31 2.09 1.85 1.64 1.54 1.84 1.93 1.85 1.72 1.69 1.67 1.47 1.42 1.28 1.18 1.22 1.22 1.17 1.09 1.10 1.25 1.52
0.96 1.07 1.19 1.12 1.08 1.09 1.11 1.19 1.21 1.25 1.30 1.39 1.50 1.62 1.82 2.12 2.46 2.67 2.78 2.67 2.53 2.42 2.28 2.10 1.76 1.51 1.62 1.95 2.06 1.98 1.79 1.64 1.50 1.48 1.33 1.19 1.16 1.16 1.12 1.06 1.02 1.05 1.14
0.77 0.78 0.88 0.88 0.96 1.05 1.08 1.12 1.15 1.22 1.27 1.34 1.48 1.54 1.60 1.82 2.03 2.21 2.40 2.53 2.52 2.52 2.48 2.23 1.92 1.64 1.57 1.74 1.99 1.97 1.91 1.91 1.66 1.60 1.57 1.42 1.28 1.22 1.17 1.05 1.02 1.02 1.06
0.85 0.85 0.96 1.00 0.95 0.95 1.00 1.08 1.13 1.12 1.16 1.21 1.27 1.36 1.43 1.48 1.68 1.83 1.94 2.16 2.36 2.63 2.69 2.52 2.25 1.91 1.79 1.69 1.78 1.95 2.01 1.95 1.85 1.67 1.64 1.49 1.47 1.39 1.37 1.22 1.08 0.99 1.01
0.95 0.93 1.00 1.09 1.14 1.10 1.08 1.15 1.12 1.11 1.14 1.15 1.19 1.17 1.22 1.28 1.38 1.57 1.61 1.83 2.15 2.44 2.54 2.62 2.51 2.18 1.91 1.76 1.52 1.63 1.90 2.10 2.08 2.01 2.00 1.73 1.57 1.40 1.37 1.38 1.36 1.22 1.06
0.91 0.84 0.83 0.86 0.95 1.02 1.32 1.27 1.07 1.00 1.06 1.11 1.16 1.14 1.17 1.14 1.11 1.20 1.34 1.47 1.76 2.00 2.14 2.24 2.26 2.11 1.89 1.76 1.71 1.67 1.75 1.90 1.92 1.80 1.86 1.95 1.85 1.68 1.57 1.45 1.49 1.55 1.44
0.83 0.77 0.75 0.70 0.73 0.93 1.09 0.92 0.89 0.88 0.99 1.11 1.20 1.24 1.19 1.12 1.15 1.14 1.19 1.21 1.27 1.49 1.72 1.94 1.99 1.88 1.95 1.87 1.82 1.72 1.72 1.72 1.67 1.75 1.82 1.91 1.90 1.81 1.72 1.72 1.72 1.57 1.51
0.78 0.72 0.74 0.78 0.78 0.84 0.97 0.81 0.77 0.79 0.98 1.12 1.14 1.11 1.19 1.22 1.26 1.30 1.20 1.24 1.18 1.18 1.30 1.33 1.49 1.75 1.95 2.13 2.12 2.02 2.03 1.94 1.81 1.87 1.88 1.87 1.73 1.65 1.58 1.59 1.68 1.51 1.39
0.86 0.81 0.89 0.92 0.86 0.83 0.93 0.87 0.87 0.89 1.02 1.12 1.09 1.13 1.25 1.31 1.51 1.54 1.38 1.41 1.34 1.30 1.30 1.42 1.51 1.65 1.79 1.91 2.08 2.15 2.12 2.10 1.94 1.80 1.75 1.72 1.60 1.61 1.59 1.48 1.45 1.47 1.36
0.80 0.86 0.87 0.81 0.78 0.86 1.01 0.95 0.98 1.04 1.14 1.25 1.23 1.25 1.53 1.53 1.57 1.50 1.37 1.49 1.44 1.29 1.21 1.25 1.30 1.40 1.46 1.58 1.73 1.78 1.98 2.14 2.04 1.84 1.56 1.53 1.52 1.58 1.65 1.51 1.40 1.32 1.29